Location: Aragoneses
(41.0275°N, 4.3847°W)
Time: 13:24:03
(UTC+00:00)

BlueWalker 3 - Pass Details

Date: 23 February 2026
Orbit: 451 x 457 km, 53.2° (Epoch: 14 March)

Event Time Altitude Azimuth Distance (km) Brightness Sun altitude
Exits shadow 05:47:41 - 204° (SSW) 2,144 4.9 -14.6°
Reaches altitude 10° 05:49:09 10° 196° (SSW) 1,590 4.3 -14.3°
Maximum altitude 05:52:21 31° 133° (SE) 822 3.5 -13.7°
Drops below altitude 10° 05:55:34 10° 69° (ENE) 1,597 5.6 -13.1°
Sets 05:57:51 0° 59° (ENE) 2,473 6.5 -12.6°
